Weather History for Forest City, IA

Change the Weather History Date:

Sunday, June 10, 2012

  Actual Average Record
Temperature  
Mean Temperature 76 °F -  
Max Temperature 89 °F 79 °F 89 °F (2012)
Min Temperature 64 °F 55 °F 53 °F (2011)
Cooling Degree Days 12    
Growing Degree Days 26 (Base 50)    
Moisture  
Dew Point 55 °F    
Average Humidity 49    
Maximum Humidity 88    
Minimum Humidity 26    
Precipitation  
Precipitation 0.14 in - - ()
Sea Level Pressure  
Sea Level Pressure 29.72 in    
Wind  
Wind Speed 14 mph (South)    
Max Wind Speed 29 mph    
Max Gust Speed 36 mph    
Visibility 10 miles    
Events Rain    
Averages and records for this station are not official NWS values.
T = Trace of Precipitation, MM = Missing Value Source: NWS Daily Summary

Daily Weather History Graph

Daily Weather History Graph

Search for Another Location

Airport:

Trip Planner

Search our weather history database for the weather conditions in past years. The results will help you decide how hot, cold, wet, or windy it might be!

Date:

Astronomy

Jun. 10, 2012 Rise Set
Actual Time 5:34 AM CDT 8:54 PM CDT
Civil Twilight 4:58 AM CDT 9:29 PM CDT
Nautical Twilight 4:12 AM CDT 10:15 PM CDT
Astronomical Twilight 3:16 AM CDT 11:12 PM CDT
Moon 12:38 AM CDT (6/10) 12:33 PM CDT (6/10)
Length of Visible Light 16h 30m
Length of Day
15h 19m
Waning Gibbous, 58% of the Moon is Illuminated
Jun 10
Waning Gibbous
Jun 11
Last Quarter
Jun 19
New
Jun 26
First Quarter
Jul 3
Full

Hourly Weather History & Observations

Time (CDT) Temp. Heat Index Dew Point Humidity Pressure Visibility Wind Dir Wind Speed Gust Speed Precip Events Conditions
12:15 AM 71.6 °F - 51.8 °F 50% 29.74 in 10.0 mi SSE 10.4 mph - N/A   Clear
12:35 AM 71.6 °F - 51.8 °F 50% 29.74 in 10.0 mi SSE 11.5 mph - N/A   Clear
12:55 AM 71.6 °F - 51.8 °F 50% 29.74 in 10.0 mi SSE 10.4 mph - N/A   Clear
1:15 AM 71.6 °F - 51.8 °F 50% 29.74 in 10.0 mi SSE 10.4 mph - N/A   Clear
1:35 AM 71.6 °F - 53.6 °F 53% 29.73 in 10.0 mi SSE 11.5 mph - N/A   Clear
1:55 AM 71.6 °F - 53.6 °F 53% 29.72 in 10.0 mi SSE 11.5 mph - N/A   Clear
2:15 AM 71.6 °F - 53.6 °F 53% 29.72 in 10.0 mi SSE 11.5 mph - N/A   Clear
2:35 AM 69.8 °F - 53.6 °F 56% 29.71 in 10.0 mi SSE 11.5 mph - N/A   Clear
2:55 AM 69.8 °F - 53.6 °F 56% 29.70 in 10.0 mi SSE 10.4 mph - N/A   Clear
3:15 AM 69.8 °F - 53.6 °F 56% 29.70 in 10.0 mi SSE 11.5 mph - N/A   Clear
3:35 AM 69.8 °F - 53.6 °F 56% 29.70 in 10.0 mi SSE 10.4 mph - N/A   Clear
3:55 AM 69.8 °F - 53.6 °F 56% 29.70 in 10.0 mi SSE 10.4 mph - N/A   Clear
4:15 AM 68.0 °F - 53.6 °F 60% 29.70 in 10.0 mi SSE 10.4 mph - N/A   Clear
4:35 AM 68.0 °F - 53.6 °F 60% 29.71 in 10.0 mi SE 9.2 mph - N/A   Clear
4:55 AM 66.2 °F - 53.6 °F 64% 29.72 in 10.0 mi SSE 10.4 mph - N/A   Clear
5:15 AM 64.4 °F - 53.6 °F 68% 29.72 in 10.0 mi SE 9.2 mph - N/A   Clear
5:35 AM 66.2 °F - 53.6 °F 64% 29.73 in 10.0 mi SSE 8.1 mph - N/A   Clear
5:55 AM 64.4 °F - 53.6 °F 68% 29.74 in 10.0 mi SSE 8.1 mph - N/A   Clear
6:15 AM 66.2 °F - 55.4 °F 68% 29.74 in 10.0 mi SSE 10.4 mph - N/A   Clear
6:35 AM 68.0 °F - 55.4 °F 64% 29.74 in 10.0 mi SSE 10.4 mph - N/A   Clear
6:55 AM 69.8 °F - 55.4 °F 60% 29.75 in 10.0 mi SSE 12.7 mph - N/A   Clear
7:15 AM 69.8 °F - 55.4 °F 60% 29.76 in 10.0 mi SSE 11.5 mph - N/A   Clear
7:35 AM 71.6 °F - 55.4 °F 57% 29.76 in 10.0 mi SSE 12.7 mph - N/A   Clear
7:55 AM 73.4 °F - 55.4 °F 53% 29.76 in 10.0 mi South 15.0 mph 18.4 mph N/A   Clear
8:15 AM 75.2 °F - 55.4 °F 50% 29.76 in 10.0 mi South 15.0 mph 23.0 mph N/A   Clear
8:35 AM 77.0 °F - 55.4 °F 47% 29.75 in 10.0 mi South 16.1 mph 23.0 mph N/A   Clear
8:55 AM 77.0 °F - 55.4 °F 47% 29.75 in 10.0 mi South 20.7 mph 26.5 mph N/A   Clear
9:15 AM 78.8 °F - 55.4 °F 44% 29.75 in 10.0 mi South 18.4 mph 21.9 mph N/A   Clear
9:35 AM 80.6 °F 80.5 °F 55.4 °F 42% 29.76 in 10.0 mi South 18.4 mph 21.9 mph N/A   Clear
9:55 AM 80.6 °F 80.5 °F 55.4 °F 42% 29.75 in 10.0 mi SSE 21.9 mph - N/A   Clear
10:15 AM 82.4 °F 81.7 °F 55.4 °F 39% 29.74 in 10.0 mi South 18.4 mph 24.2 mph N/A   Clear
10:35 AM 84.2 °F 83.5 °F 57.2 °F 40% 29.74 in 10.0 mi South 17.3 mph 23.0 mph N/A   Clear
10:55 AM 84.2 °F 83.5 °F 57.2 °F 40% 29.74 in 10.0 mi South 18.4 mph 24.2 mph N/A   Clear
11:15 AM 84.2 °F 83.5 °F 57.2 °F 40% 29.74 in 10.0 mi South 19.6 mph 27.6 mph N/A   Clear
11:35 AM 84.2 °F 83.5 °F 57.2 °F 40% 29.75 in 10.0 mi South 20.7 mph 27.6 mph N/A   Scattered Clouds
11:55 AM 86.0 °F 84.9 °F 57.2 °F 37% 29.75 in 10.0 mi South 23.0 mph 31.1 mph N/A   Mostly Cloudy
12:15 PM 86.0 °F 84.5 °F 55.4 °F 35% 29.74 in 10.0 mi South 24.2 mph 32.2 mph N/A   Mostly Cloudy
12:35 PM 87.8 °F 86.1 °F 55.4 °F 33% 29.73 in 10.0 mi South 21.9 mph 31.1 mph N/A   Scattered Clouds
12:55 PM 87.8 °F 86.1 °F 55.4 °F 33% 29.72 in 10.0 mi South 23.0 mph 33.4 mph N/A   Scattered Clouds
1:15 PM 87.8 °F 85.7 °F 53.6 °F 31% 29.72 in 10.0 mi South 25.3 mph 35.7 mph N/A   Scattered Clouds
1:35 PM 87.8 °F 85.7 °F 53.6 °F 31% 29.71 in 10.0 mi South 28.8 mph 34.5 mph N/A   Scattered Clouds
1:55 PM 89.6 °F 87.3 °F 53.6 °F 29% 29.69 in 10.0 mi South 26.5 mph 34.5 mph N/A   Scattered Clouds
2:15 PM 89.6 °F - 51.8 °F 27% 29.68 in 10.0 mi SSE 28.8 mph 35.7 mph N/A   Clear
2:35 PM 89.6 °F - 51.8 °F 27% 29.69 in 10.0 mi SSE 24.2 mph 34.5 mph N/A   Scattered Clouds
2:55 PM 89.6 °F - 50.0 °F 26% 29.69 in 10.0 mi South 26.5 mph 35.7 mph N/A   Scattered Clouds
3:15 PM 89.6 °F - 50.0 °F 26% 29.69 in 10.0 mi South 27.6 mph 35.7 mph N/A   Scattered Clouds
3:35 PM 89.6 °F - 51.8 °F 27% 29.70 in 10.0 mi SSE 20.7 mph 32.2 mph N/A   Scattered Clouds
3:55 PM 87.8 °F - 51.8 °F 29% 29.70 in 10.0 mi SSE 25.3 mph 33.4 mph N/A   Scattered Clouds
4:15 PM 87.8 °F - 51.8 °F 29% 29.70 in 10.0 mi South 24.2 mph 31.1 mph N/A   Mostly Cloudy
4:35 PM 87.8 °F 85.7 °F 53.6 °F 31% 29.71 in 10.0 mi South 23.0 mph 32.2 mph N/A   Mostly Cloudy
4:55 PM 87.8 °F 85.7 °F 53.6 °F 31% 29.71 in 10.0 mi South 21.9 mph 27.6 mph N/A   Mostly Cloudy
5:15 PM 87.8 °F 85.7 °F 53.6 °F 31% 29.69 in 10.0 mi South 23.0 mph 29.9 mph N/A   Mostly Cloudy
5:35 PM 87.8 °F 85.7 °F 53.6 °F 31% 29.68 in 10.0 mi SSE 21.9 mph 32.2 mph N/A   Clear
5:55 PM 87.8 °F 85.7 °F 53.6 °F 31% 29.67 in 10.0 mi SSE 25.3 mph 34.5 mph N/A   Clear
6:15 PM 87.8 °F 85.7 °F 53.6 °F 31% 29.67 in 10.0 mi SSE 25.3 mph 35.7 mph N/A   Clear
6:35 PM 86.0 °F 84.2 °F 53.6 °F 33% 29.68 in 10.0 mi South 26.5 mph 35.7 mph N/A   Scattered Clouds
6:55 PM 84.2 °F 82.8 °F 53.6 °F 35% 29.68 in 10.0 mi South 20.7 mph 32.2 mph N/A   Scattered Clouds
7:15 PM 84.2 °F 83.0 °F 55.4 °F 37% 29.68 in 10.0 mi South 23.0 mph 29.9 mph N/A   Clear
7:35 PM 82.4 °F 81.7 °F 55.4 °F 39% 29.68 in 10.0 mi South 20.7 mph 27.6 mph N/A   Scattered Clouds
7:55 PM 82.4 °F 81.7 °F 55.4 °F 39% 29.68 in 10.0 mi South 18.4 mph - N/A   Scattered Clouds
8:15 PM 82.4 °F 81.7 °F 55.4 °F 39% 29.69 in 10.0 mi South 18.4 mph 26.5 mph N/A   Mostly Cloudy
8:35 PM 71.6 °F - 59.0 °F 64% 29.71 in 10.0 mi West 11.5 mph 26.5 mph N/A   Overcast
8:55 PM 69.8 °F - 59.0 °F 68% 29.70 in 10.0 mi Calm Calm - N/A Rain Light Rain
9:15 PM 69.8 °F - 60.8 °F 73% 29.70 in 10.0 mi West 3.5 mph - N/A   Mostly Cloudy
9:35 PM 69.8 °F - 60.8 °F 73% 29.72 in 10.0 mi West 6.9 mph - N/A   Overcast
9:55 PM 71.6 °F - 62.6 °F 73% 29.75 in 10.0 mi West 8.1 mph - N/A Rain Light Rain
10:15 PM 71.6 °F - 64.4 °F 78% 29.76 in 10.0 mi West 6.9 mph - N/A   Overcast
10:35 PM 71.6 °F - 64.4 °F 78% 29.75 in 10.0 mi WNW 9.2 mph - N/A Rain Light Rain
10:55 PM 69.8 °F - 64.4 °F 83% 29.76 in 10.0 mi NW 5.8 mph - 0.01 in Rain Rain
11:35 PM 69.8 °F - 66.2 °F 88% 29.77 in 4.0 mi WNW 15.0 mph - 0.10 in Rain Rain
11:55 PM 66.2 °F - 62.6 °F 88% 29.79 in 10.0 mi NW 9.2 mph - 0.13 in Rain Light Rain